Theta_e
327 341 350 353 354 355 353 353 353 351 349 347 344 344 341 340 344 343 340 340 340 341 341 340 339 338 339 342 343 346 346 344
330 340 347 353 352 350 347 347 348 344 342 340 340 340 340 340 339 340 340 340 340 340 340 340 340 340 341 341 341 343 346 343
327 331 336 347 347 347 348 348 346 342 338 336 336 335 335 337 337 338 338 338 338 338 338 339 340 341 341 339 340 341 344 343
323 328 330 334 340 348 347 346 342 337 334 334 333 333 333 334 334 335 335 336 336 337 337 339 340 340 341 340 339 340 342 343
318 318 320 328 331 331 333 342 338 335 335 335 334 334 334 333 333 333 334 334 336 337 337 339 339 338 340 339 340 339 341 343
317 315 316 319 322 325 326 331 338 338 337 336 335 335 331 325 325 328 331 334 337 337 337 338 338 338 339 338 338 339 340 336
316 318 319 322 324 326 330 327 328 328 329 328 327 325 323 323 323 328 330 334 335 336 337 337 338 337 336 328 329 337 333 334
316 318 320 322 326 325 325 326 325 325 325 325 325 325 324 325 323 323 324 325 325 332 329 333 332 330 329 326 325 330 332 332
315 319 324 326 325 326 327 325 324 325 324 323 325 326 324 323 323 323 324 323 324 325 325 326 326 326 326 326 324 330 332 329
315 319 323 324 325 328 327 325 325 325 325 325 325 325 326 324 323 322 323 323 322 323 325 324 325 326 325 325 325 331 329 330
315 320 322 324 326 326 325 324 326 327 327 326 325 326 327 327 322 322 322 322 322 322 324 324 325 326 325 323 326 331 331 333
315 321 322 322 324 324 324 326 327 327 328 327 326 327 326 327 323 322 323 323 322 322 323 324 324 325 325 327 327 329 330 333
318 320 322 326 322 325 325 326 327 327 327 327 327 326 326 328 325 323 323 324 323 322 322 323 323 324 326 326 325 324 329 331
318 319 321 323 323 325 324 326 326 328 327 327 327 324 324 326 327 324 323 324 323 323 321 323 322 323 322 323 324 324 328 328
320 321 322 322 323 324 324 326 326 327 327 327 326 324 324 323 326 325 324 323 323 321 321 321 321 322 322 321 327 327 329 328
319 321 322 322 321 322 324 323 323 322 325 327 328 327 325 325 326 324 324 323 324 320 320 321 320 322 321 321 320 321 325 330
317 319 323 321 322 324 325 326 326 326 327 326 326 328 328 327 326 325 325 323 323 322 323 321 320 318 319 322 319 319 318 323
317 319 321 322 324 326 326 326 325 325 325 324 324 326 325 329 327 326 325 323 323 323 322 321 320 319 318 322 322 321 317 315
318 319 322 324 325 328 326 324 322 320 319 323 325 326 325 329 327 327 325 324 323 322 322 323 323 320 320 319 321 326 322 322
Wind_Speed
11 11 13 14 12 10 10 9 9 9 8 9 10 9 9 11 11 11 13 15 15 15 15 13 12 12 10 10 9 8 6 6
8 9 9 14 13 12 11 10 8 6 5 3 4 7 9 11 12 12 14 14 15 16 16 16 14 12 9 7 7 8 7 7
12 10 9 15 15 14 13 12 12 10 8 8 8 8 9 11 13 14 15 16 17 18 18 17 15 13 9 5 6 8 5 7
11 13 9 10 13 15 13 11 11 12 11 10 8 8 9 11 13 15 16 17 18 19 19 18 16 15 9 7 6 7 6 7
9 8 9 7 5 6 6 13 15 13 14 12 9 9 9 9 11 13 14 16 18 18 18 18 16 15 10 8 5 7 8 8
7 6 7 8 8 7 7 8 12 16 14 11 9 8 2 3 6 9 9 13 17 17 17 15 17 15 11 10 8 9 10 3
7 6 7 8 7 6 2 4 5 6 5 5 5 3 3 3 4 7 10 13 11 13 17 14 15 16 13 4 4 10 3 5
8 6 6 7 7 5 1 2 2 3 2 2 4 4 4 3 4 4 3 3 2 6 2 7 7 5 5 5 5 4 6 5
8 8 8 8 6 4 3 0 3 1 1 3 4 5 4 3 4 3 2 3 2 3 4 4 4 5 6 7 6 7 8 5
9 8 8 6 5 4 3 3 2 2 3 4 3 4 4 5 4 3 3 3 3 2 4 4 5 5 7 6 6 6 7 6
8 8 7 5 5 4 5 4 4 3 5 4 4 4 6 4 4 3 3 3 3 4 4 6 5 4 4 5 6 6 5 6
8 9 7 4 3 4 4 5 4 4 4 4 4 4 4 3 5 4 4 4 4 4 5 5 4 3 3 5 5 4 3 5
10 9 6 3 3 2 1 2 2 3 3 3 4 2 3 3 4 5 4 4 4 4 4 4 3 3 4 4 3 3 4 4
9 9 6 4 1 1 3 3 3 2 2 3 2 2 3 4 5 4 4 3 5 4 4 4 3 3 3 3 3 4 4 3
9 9 7 3 2 1 3 3 2 1 2 2 2 2 4 4 5 4 2 3 3 4 4 3 4 2 2 4 5 5 3 2
9 9 6 4 2 1 1 2 1 1 2 1 2 3 6 5 6 3 3 4 3 5 4 4 3 4 4 4 5 4 4 4
9 9 6 4 3 1 1 1 1 2 3 2 2 2 2 5 6 4 4 4 4 4 5 3 4 2 2 2 4 4 3 3
9 8 7 5 4 2 2 1 3 3 3 3 1 1 3 2 3 3 3 4 4 4 7 5 5 5 3 1 5 5 4 3
8 8 7 6 4 3 3 3 3 1 2 2 1 2 3 4 2 3 4 4 5 3 5 5 5 4 5 4 3 3 3 6
Wind_Direction
114 143 159 167 168 174 189 198 215 226 229 232 238 234 240 248 249 247 252 256 258 261 264 259 258 256 259 269 266 258 254 268
105 119 135 147 152 165 181 188 193 162 161 196 249 258 258 258 258 259 259 257 258 255 256 254 247 245 247 268 272 264 248 247
140 141 153 157 165 172 180 181 180 180 191 212 230 245 254 260 260 259 258 258 259 256 255 248 239 238 230 242 254 255 263 236
138 153 162 169 178 177 181 177 181 190 203 215 226 246 260 266 269 267 264 261 255 251 252 247 231 230 212 219 257 260 236 238
167 174 172 157 147 162 174 185 197 199 213 210 213 223 239 246 271 274 271 268 260 252 250 247 226 226 207 207 237 243 220 228
191 147 117 132 121 132 152 207 205 215 220 213 214 237 212 203 246 264 276 280 248 250 243 233 217 218 212 208 217 234 217 194
108 112 112 113 110 91 32 34 196 239 206 192 211 227 202 225 251 272 271 281 277 247 228 218 209 213 209 186 219 225 199 199
131 120 124 108 107 108 90 342 333 343 124 191 221 223 207 219 250 269 288 282 270 268 217 206 197 201 188 195 213 191 202 192
115 114 106 108 113 139 141 320 289 123 222 246 239 237 194 223 241 250 247 268 246 227 195 185 187 178 209 214 204 190 195 182
113 111 109 110 132 160 160 219 244 268 271 270 251 271 212 206 226 234 258 246 237 227 185 192 194 191 210 222 214 203 199 175
125 117 119 120 161 164 193 220 233 237 246 248 265 260 280 188 208 219 240 241 243 213 203 189 200 206 214 210 221 203 180 173
135 124 128 185 174 200 240 235 234 246 239 244 254 258 261 219 218 222 237 237 235 215 203 183 194 209 220 219 198 191 126 190
117 121 130 105 92 72 355 295 255 241 246 256 252 241 244 271 232 225 229 237 220 190 176 177 170 202 223 189 180 124 117 145
128 122 116 110 14 112 330 304 274 273 276 276 283 228 234 258 274 237 216 247 201 173 170 173 196 176 191 186 168 140 141 166
127 118 122 151 188 92 314 306 286 330 297 257 282 220 213 242 263 261 233 239 171 158 160 155 185 190 192 177 149 149 96 229
122 126 152 168 213 119 347 315 317 254 273 235 240 246 218 225 241 254 207 215 184 156 166 171 163 186 228 157 112 80 93 80
135 142 156 173 153 67 158 257 212 267 268 225 238 296 280 235 225 236 202 203 189 139 142 175 179 116 134 146 123 121 113 78
142 145 160 164 140 131 33 23 340 352 334 353 336 327 299 285 181 190 196 172 182 150 161 191 159 126 119 353 146 121 138 164
145 148 144 145 165 135 83 65 79 63 305 279 283 12 357 10 201 171 160 176 177 157 156 151 140 123 125 130 68 76 119 114